User: anonymous
Location: Fisheating Creek Campgrounds
(26.9333°N, 81.3167°W)
Time: 17:53:05
(UTC-04:00)
Language:

NATO 3D Rocket - Orbit

View from above orbital plane
View from above orbital plane
View from above satellite
View from above satellite

Ground track
Ground track

The orbit data is extracted from the following two-line orbital elements,

1 15392U 84115B   14106.46907385  .00000290  00000-0  11763-3 0  1560
2 15392 021.4954 200.9528 1035089 283.0542 159.9159 12.45409972339561
Epoch (UTC): 16 April 2014 11:15:27
Eccentricity: 0.1035089
inclination: 21.4954°
perigee height: 670 km
apogee height: 2297 km
right ascension of ascending node: 200.9528°
argument of perigee: 283.0542°
revolutions per day: 12.45409972
mean anomaly at epoch: 159.9159°
orbit number at epoch: 33956

The dashed part of the orbit path shows where the satellite is in the earth's shadow,  

DLR